This demonstration page uses our WeatherBlox Daily Observations layout. Learn more.

Hourly Observations for July 31, 2017

Temp ( °F °C ) Dew Point ( °F °C ) Humidity (%) Winds ( mph kmh ) Pressure ( in mb ) Visibility ( mi km ) Precip ( " mm )
12:15 am 00:15 Clear 65 18.6 62 16.5 88 88 SSE 5 7 30.09 1019 10 16.09344 0 0
12:35 am 00:35 Clear 66 19.1 61 15.9 82 82 S 3 6 30.09 1019 10 16.09344 0 0
12:55 am 00:55 Mostly Cloudy 66 18.7 60 15.7 83 83 SE 5 7 30.09 1019 10 16.09344 0 0
1:15 am 01:15 Cloudy 65 18.5 61 16.2 87 87 ESE 3 6 30.09 1019 10 16.09344 0 0
1:35 am 01:35 Cloudy 65 18.6 61 16 85 85 SE 3 6 30.09 1019 10 16.09344 0 0
1:55 am 01:55 Cloudy 66 18.7 61 16.2 85 85 SE 3 6 30.09 1019 10 16.09344 0 0
2:15 am 02:15 Cloudy 66 18.9 62 16.5 86 86 SE 7 11 30.09 1019 10 16.09344 0 0
2:35 am 02:35 Cloudy 66 19 62 16.7 87 87 SE 3 6 30.09 1019 10 16.09344 0 0
2:55 am 02:55 Cloudy 66 19 63 17 88 88 ESE 3 6 30.09 1019 10 16.09344 0 0
3:15 am 03:15 Cloudy 66 19.1 63 17.2 89 89 Calm 30.09 1019 10 16.09344 0 0
3:35 am 03:35 Cloudy 66 19.1 64 17.5 91 91 SE 3 6 30.09 1019 10 16.09344 0 0
3:55 am 03:55 Cloudy 66 19 63 17.4 91 91 ESE 5 7 30.09 1019 10 16.09344 0 0
4:15 am 04:15 Cloudy 66 19 63 17.4 91 91 SE 6 9 30.09 1019 10 16.09344 0 0
4:35 am 04:35 Cloudy 66 19.1 63 17.1 88 88 SSE 6 9 30.09 1019 10 16.09344 0 0
4:55 am 04:55 Cloudy 66 19.1 63 17 88 88 SSE 5 7 30.06 1018 10 16.09344 0 0
5:15 am 05:15 Cloudy 66 19 63 17 88 88 SSE 3 6 30.06 1018 10 16.09344 0 0
5:35 am 05:35 Cloudy 67 19.3 62 16.5 84 84 S 3 6 30.06 1018 10 16.09344 0 0
5:55 am 05:55 Cloudy 67 19.2 61 16.3 83 83 S 6 9 30.06 1018 10 16.09344 0 0
6:15 am 06:15 Mostly Cloudy 66 18.8 61 16.2 85 85 SSE 7 11 30.06 1018 10 16.09344 0 0
6:35 am 06:35 Mostly Cloudy 66 18.7 61 16.2 85 85 SSE 6 9 30.09 1019 10 16.09344 0 0
6:55 am 06:55 Cloudy 66 18.7 61 16 84 84 SSE 6 9 30.09 1019 10 16.09344 0 0
7:15 am 07:15 Cloudy 65 18.6 61 16.2 86 86 SSE 9 15 30.09 1019 10 16.09344 0 0
7:35 am 07:35 Mostly Cloudy 66 18.9 61 16.2 84 84 S 10 17 30.09 1019 10 16.09344 0 0
7:55 am 07:55 Mostly Cloudy 67 19.2 61 16.3 83 83 S 8 13 30.09 1019 10 16.09344 0 0
8:15 am 08:15 Cloudy 66 19.1 61 16.1 83 83 SSE 10 17 30.09 1019 10 16.09344 0 0
8:35 am 08:35 Cloudy 66 19.1 61 16 82 82 S 9 15 30.09 1019 10 16.09344 0 0
8:55 am 08:55 Cloudy 67 19.3 61 16 81 81 S 9 15 30.12 1020 10 16.09344 0 0
9:15 am 09:15 Cloudy 67 19.5 61 16 80 80 S 10 17 30.09 1019 10 16.09344 0 0
9:35 am 09:35 Cloudy 68 19.8 61 16.2 80 80 S 8 13 30.12 1020 10 16.09344 0 0
9:55 am 09:55 Cloudy 69 20.5 61 16.3 77 77 SSW 10 17 30.12 1020 10 16.09344 0 0
10:15 am 10:15 Cloudy 70 20.9 61 16.2 75 75 S 9 15 30.12 1020 10 16.09344 0 0
10:35 am 10:35 Cloudy 70 21.1 61 16.2 74 74 S 9 15 30.12 1020 10 16.09344 0 0
10:55 am 10:55 Cloudy 70 21.2 62 16.4 74 74 S 12 19 30.12 1020 10 16.09344 0 0
11:15 am 11:15 Cloudy 70 21.2 61 16.2 73 73 S 10 17 30.12 1020 10 16.09344 0 0
11:35 am 11:35 Cloudy 71 21.5 60 15.8 70 70 S 12 19 30.09 1019 10 16.09344 0 0
11:55 am 11:55 Cloudy 72 22.1 61 16.2 69 69 S 12 19 30.09 1019 10 16.09344 0 0
12:15 pm 12:15 Cloudy 74 23.6 61 15.9 62 62 S 15 24 30.09 1019 10 16.09344 0 0
12:35 pm 12:35 Partly Cloudy 73 23 60 15.8 64 64 S 13 20 30.09 1019 10 16.09344 0 0
12:55 pm 12:55 Partly Cloudy 74 23.5 61 16.1 63 63 SSW 10 17 30.06 1018 10 16.09344 0 0
1:15 pm 13:15 Mostly Cloudy 74 23.4 61 16.2 64 64 S 10 17 30.06 1018 10 16.09344 0 0
1:35 pm 13:35 Mostly Cloudy 75 23.9 61 16.2 62 62 S 10 17 30.06 1018 10 16.09344 0 0
1:55 pm 13:55 Mostly Cloudy 75 23.8 61 16.2 63 63 S 7 11 30.06 1018 10 16.09344 0 0
2:15 pm 14:15 Mostly Cloudy 76 24.5 62 16.7 62 62 S 10 17 30.06 1018 10 16.09344 0 0
2:35 pm 14:35 Mostly Cloudy 77 24.9 62 16.7 60 60 S 7 11 30.03 1017 10 16.09344 0 0
2:55 pm 14:55 Cloudy 76 24.6 62 16.7 62 62 S 8 13 30.06 1018 10 16.09344 0 0
3:15 pm 15:15 Cloudy 77 25.1 63 17.4 62 62 SSW 8 13 30 1016 10 16.09344 0 0
3:35 pm 15:35 Mostly Cloudy 76 24.6 63 17.3 64 64 SSE 8 13 30 1016 10 16.09344 0 0
3:55 pm 15:55 Mostly Cloudy 77 24.9 62 16.8 61 61 SSE 5 7 30 1016 10 16.09344 0 0
4:15 pm 16:15 Cloudy 76 24.5 63 17.2 64 64 S 7 11 30 1016 10 16.09344 0 0
4:35 pm 16:35 Cloudy 76 24.5 63 17.2 64 64 SE 8 13 30 1016 10 16.09344 0 0
4:55 pm 16:55 Cloudy 76 24.5 62 16.7 62 62 S 7 11 30 1016 10 16.09344 0 0
5:15 pm 17:15 Mostly Cloudy 77 25.2 63 17.1 61 61 SSE 9 15 30 1016 10 16.09344 0 0
5:35 pm 17:35 Partly Cloudy 77 24.9 62 16.9 61 61 SSE 9 15 30 1016 10 16.09344 0 0
5:55 pm 17:55 Partly Cloudy 77 25 63 17 61 61 SSE 10 17 30 1016 10 16.09344 0 0
6:15 pm 18:15 Sunny 76 24.6 62 16.6 61 61 SSE 12 19 30 1016 10 16.09344 0 0
6:35 pm 18:35 Sunny 76 24.6 63 17 63 63 SSE 9 15 30 1016 10 16.09344 0 0
7:15 pm 19:15 Sunny 75 24 63 17.1 65 65 SSE 12 19 30.03 1017 10 16.09344 0 0
7:35 pm 19:35 Sunny 75 23.7 63 17.1 67 67 SSE 9 15 30.03 1017 10 16.09344 0 0
7:55 pm 19:55 Sunny 74 23.1 63 17 69 69 SSE 9 15 30.03 1017 10 16.09344 0 0
8:15 pm 20:15 Sunny 73 22.5 64 17.5 73 73 SSE 5 7 30.03 1017 10 16.09344 0 0
8:35 pm 20:35 Sunny 71 21.6 63 17.3 77 77 SSE 7 11 30.03 1017 10 16.09344 0 0
8:55 pm 20:55 Clear 69 20.7 64 17.7 83 83 SSE 7 11 30.03 1017 10 16.09344 0 0
9:15 pm 21:15 Partly Cloudy 68 20.1 64 17.7 86 86 SSE 6 9 30.06 1018 10 16.09344 0 0
9:35 pm 21:35 Clear 68 20 64 17.5 86 86 SSE 5 7 30.06 1018 10 16.09344 0 0
9:55 pm 21:55 Clear 67 19.5 63 17.3 87 87 SSE 5 7 30.06 1018 10 16.09344 0 0
10:15 pm 22:15 Partly Cloudy 66 19 63 17.2 89 89 S 5 7 30.06 1018 10 16.09344 0 0
10:35 pm 22:35 Partly Cloudy 66 19 63 17.2 89 89 S 6 9 30.06 1018 10 16.09344 0 0
10:55 pm 22:55 Mostly Cloudy 66 18.8 63 17.2 90 90 S 3 6 30.06 1018 10 16.09344 0 0
11:15 pm 23:15 Mostly Cloudy 66 18.7 63 17.1 90 90 S 3 6 30.06 1018 10 16.09344 0 0
11:35 pm 23:35 Partly Cloudy 65 18.5 63 17 91 91 S 5 7 30.06 1018 10 16.09344 0 0
11:55 pm 23:55 Clear 65 18.5 63 17 91 91 S 5 7 30.09 1019 10 16.09344 0 0

Powered by AerisWeather